This is the latest recevied weather packets stored in our database for station/object DG7YEO-13. If no packets are shown the sender has not sent any weather packets the latest 10 day(s).
| Time | Temp. | Humidity | Pressure | Rain* | Wind** | Luminosity | Snow |
|---|---|---|---|---|---|---|---|
| 1787569325 | 20° C | 56% | 1022.1 hPa | 0 mm | - | - | - |
| 1787568425 | 20° C | 55% | 1022.2 hPa | 0 mm | - | - | - |
| 1787567525 | 20.56° C | 55% | 1022.4 hPa | 0 mm | - | - | - |
| 1787566625 | 20° C | 57% | 1022.4 hPa | 0 mm | - | - | - |
| 1787565725 | 20° C | 56% | 1022.5 hPa | 0 mm | - | - | - |
| 1787564825 | 19.44° C | 57% | 1022.6 hPa | 0 mm | - | - | - |
| 1787563925 | 20.56° C | 58% | 1022.7 hPa | 0 mm | - | - | - |
| 1787563025 | 20° C | 60% | 1022.7 hPa | 0 mm | - | - | - |
| 1787562125 | 19.44° C | 65% | 1022.8 hPa | 0 mm | - | - | - |
| 1787561224 | 18.89° C | 67% | 1022.9 hPa | 0 mm | - | - | - |
| 1787560325 | 18.33° C | 72% | 1023 hPa | 0 mm | - | - | - |
| 1787559425 | 17.78° C | 74% | 1023.1 hPa | 0 mm | - | - | - |
| 1787558525 | 17.78° C | 76% | 1023.1 hPa | 0 mm | - | - | - |
| 1787557625 | 17.22° C | 76% | 1023.1 hPa | 0 mm | - | - | - |
| 1787556724 | 16.67° C | 79% | 1023 hPa | 0 mm | - | - | - |
| 1787555825 | 15.56° C | 82% | 1023.1 hPa | 0 mm | - | - | - |
| 1787554926 | 14.44° C | 86% | 1023.1 hPa | 0 mm | - | - | - |
| 1787554025 | 13.89° C | 89% | 1023.2 hPa | 0 mm | - | - | - |
| 1787553125 | 12.78° C | 93% | 1023.2 hPa | 0 mm | - | - | - |
| 1787552225 | 11.67° C | 94% | 1023.2 hPa | 0 mm | - | - | - |
| 1787551325 | 10.56° C | 94% | 1023 hPa | 0 mm | - | - | - |
| 1787550424 | 10° C | 92% | 1023.1 hPa | 0 mm | - | - | - |
| 1787549525 | 10° C | 92% | 1023.1 hPa | 0 mm | - | - | - |
| 1787548625 | 10° C | 92% | 1023 hPa | 0 mm | - | - | - |
| 1787547725 | 10° C | 92% | 1023 hPa | 0 mm | - | - | - |
* Rain latest hour (hover to see other rain measurements)
** Current wind speed in m/s (hover to see current wind gust speed)